Regional Weather Roundup
Issued by NWS Wakefield, VA

Home | Current Version | Previous Version | Graphics & Text | Print | Product List | Glossary On
Versions: 1 2 3 4 5 6 7 8 9 10 11 12 13 14 15 16 17 18 19 20 21 22 23 24 25 26 27 28 29 30 31 32 33 34 35 36 37 38 39 40 41 42 43 44 45 46 47 48 49 50
000
ASUS41 KAKQ 270914
RWRAKQ

REGIONAL WEATHER ROUNDUP
NATIONAL WEATHER SERVICE WAKEFIELD VA
500 AM EDT MON APR 27 2015

Note: "fair" indicates few or no clouds below 12,000 feet with no
significant weather and/or obstructions to visibility. * = Denotes
station may not report precipitation (e.g., rain,snow,etc.),
thunder or fog.

VAZ042-051-052>054-056-271000-
NORTHERN VIRGINIA

CITY           SKY/WX    TMP DP  RH WIND       PRES   REMARKS
WASH NATIONAL  MOCLDY    49  32  52 N6        29.76R
DULLES         FAIR      40  32  73 NW3       29.76S
FORT BELVOIR   PTCLDY    44  32  62 W3        29.75S
QUANTICO       CLEAR     45  35  68 NW7       29.77R
FREDERICKSBRG* CLEAR     42  37  85 CALM      29.75S
STAFFORD*      CLEAR     37  33  86 NW6       29.80R
WARRENTON      CLEAR     41  35  79 CALM      29.76R
CULPEPER*      CLEAR     41  36  81 CALM      29.77R
MANASSAS*      CLEAR     43  34  70 NW5       29.76S
LEESBURG*      MOCLDY    41  36  81 NW3       29.77S
WINCHESTER     MOCLDY    43  27  52 W5        29.77S
FRONT ROYAL*   FAIR      39  32  75 S5        29.77S
LURAY*         FAIR      41  36  81 CALM      29.78S
$$

VAZ048-049-060>072-079>083-271000-
CENTRAL AND SOUTH CENTRAL VIRGINIA

CITY           SKY/WX    TMP DP  RH WIND       PRES   REMARKS
RICHMOND       CLEAR     44  40  85 W3        29.73R
CHESTERFIELD*  FAIR      39  28  65 NW6       29.74R
PETERSBURG*    CLEAR     37  37  98 CALM      29.74S
HANOVER        CLEAR     40  39  97 CALM      29.74R
TAPPAHANNOCK*  CLEAR     38  35  89 W3        29.74R
QUINTON*       FAIR      40  39  99 CALM      29.73R
CHARLOTTSVILLE CLEAR     45  33  63 CALM      29.76R
GORDONSVILLE*  FAIR      47  31  54 N6        29.76R
ORANGE*        CLEAR     46  32  57 NW6       29.77S
LOUISA*        CLEAR     45  36  70 N6        29.74R
BUMPASS*       FAIR      46  36  68 N3        29.75R
FARMVILLE*     PTCLDY    39  39 100 CALM      29.74S FOG
CREWE*         FAIR      45  42  89 W5        29.73S
FORT PICKETT*  FAIR      37  37  98 W6        29.73S
CHASE CITY*    FAIR      41  41 100 CALM      29.75S
CLARKSVILLE*   FAIR      37  37 100 CALM      29.75S
SOUTH HILL*    CLEAR     40  39  99 CALM      29.80S
LAWRENCEVILLE* PTSUNNY   38  38 100 CALM      29.73F VSB 1/2
EMPORIA*       FOG       34  34 100 CALM      29.75S VSB 1/2
$$

VAZ088>098-271000-
SOUTHEAST VIRGINIA

CITY           SKY/WX    TMP DP  RH WIND       PRES   REMARKS
NORFOLK        CLEAR     43  38  82 SW6       29.72S
VIRGINIA BEACH CLEAR     45  40  82 SW6       29.72S
NORFOLK NAVAL  CLEAR     50  40  68 S3        29.73F
WEST POINT*    CLEAR     40  38  92 CALM      29.74R
SALUDA*        FAIR      42  40  93 CALM      29.71F
NEWPORT NEWS   CLEAR     43  38  82 CALM      29.72F HAZE
LANGLEY AFB    CLEAR     43  40  91 W2        29.71F
FORT EUSTIS    CLEAR     43  43 100 CALM      29.70F
WILLIAMSBURG*  CLEAR     45  43  93 CALM      29.73S
HR EXEC AP*    FAIR      36  32  87 CALM      29.74F
FRANKLIN*      CLEAR     38  38  99 CALM      29.74F
WAKEFIELD      CLEAR     39  37  92 CALM      29.73S
$$

VAZ020-022-025-037-045-271000-
WEST CENTRAL AND SOUTHWEST VIRGINIA

CITY           SKY/WX    TMP DP  RH WIND       PRES   REMARKS
STAUNTON*      CLEAR     35  33  90 CALM      29.79S
WAYNESBORO*    FAIR      35  35  99 CALM      29.77S
HOT SPRINGS VA CLEAR     35  29  78 N7        29.73F
LYNCHBURG      CLEAR     39  39 100 CALM      29.77S
DANVILLE       FOG       40  38  93 VRB3      29.76S VSB 1
SOUTH BOSTON*    N/A     37  36  95 CALM      29.76S
MARTINSVILLE   MOCLDY    35  35 100 NW3       29.78F FOG
ROANOKE        PTCLDY    41  36  82 NW6       29.79S
BLACKSBURG     CLEAR     36  35  97 CALM      29.81F
DUBLIN*        CLEAR     38  37  97 CALM      29.81S
MARION*        MOCLDY    38  37  94 W6        29.82F
HILLSVILLE*    CLEAR     41  37  86 W3        29.78S
RICHLANDS*     FAIR      39  28  64 NW3       29.82S
WISE*          PTCLDY    41  32  70 NW6       29.84S
ABINGDON*      CLEAR     43  40  88 CALM      29.82S
$$

MDZ021>025-VAZ099-100-271000-
SOUTHERN MARYLAND AND THE DELMARVA PENINSULA

CITY           SKY/WX    TMP DP  RH WIND       PRES   REMARKS
PATUXENT RIVER CLEAR     49  40  71 N10       29.72R
BAY BRIDGE APT   N/A    N/A N/A N/A N5        29.74S
LEONARDTOWN    CLEAR     46  37  71 CALM      29.74R
DOVER          CLOUDY    42  40  92 NW6       29.68S
GEORGETOWN     CLEAR     38  35  89 CALM      29.72S
EASTON         PTCLDY    43  37  78 CALM      29.76S
CAMBRIDGE      CLEAR     41  37  87 CALM      29.72S
SALISBURY      CLEAR     38  36  92 CALM      29.72R
OCEAN CITY     CLEAR     37  36  96 CALM      29.72R
WALLOPS ISLAND CLEAR     45  36  70 W6        29.70F
ACCOMACK*      CLEAR     41  36  81 SW5       29.71S
$$

NCZ012>017-030>032-271000-
NORTH CENTRAL AND EASTERN NORTH CAROLINA

CITY           SKY/WX    TMP DP  RH WIND       PRES   REMARKS
ROANOKE RAPIDS FAIR      37  37 100 CALM      29.74S
RALEIGH        PTCLDY    40  39  97 CALM      29.76F
ELIZABETH CITY CLEAR     43  41  93 W5        29.74S
AHOSKIE*       CLEAR     40  39  98 CALM      29.75S FOG
EDENTON*       CLEAR     42  41  97 CALM      29.74S
CURRITUCK*     CLEAR     44  41  91 CALM      29.74S
KILL DEVIL HLS CLEAR     49  42  77 NW3       29.71S
MANTEO         CLEAR     41  37  88 N3        29.72F
CAPE HATTERAS  CLOUDY    52  39  61 N7        29.70F
TARBORO*       FOG       40  40  97 CALM      29.76S VSB 1/2
GOLDSBORO      CLEAR     46  46  99 CALM      29.73F
WASHINGTON       N/A     44  43  97 CALM      29.74F FOG
GREENVILLE     FOG       43  43 100 CALM      29.78R VSB 1/4
NEW BERN       MOCLDY    48  45  89 NW5       29.74F
WILMINGTON     MOCLDY    49  47  93 N5        29.74R
$$

VAZ048-271000-
ELSEWHERE

CITY           SKY/WX    TMP DP  RH WIND       PRES   REMARKS
HARRISBURG PA  MOCLDY    46  32  58 NW6       29.73F
BALTIMORE      MOCLDY    40  35  83 NW3       29.74S
ANNAPOLIS      PTCLDY    49  38  65 N5        29.73S
ANDREWS AFB    CLEAR     42  31  65 N7        29.73S
PHILADELPHIA   PTCLDY    48  29  47 NW7       29.73S
HENDERSON NC   CLEAR     39  38  95 SW6       29.75S FOG
GREENSBORO     CLEAR     42  40  92 W3        29.75F
ROCKY MOUNT    CLEAR     44  42  93 CALM      29.75F
$$

VAZ100-271000-
MARINE

STATION/POSITION TIME  TEMP    WIND        PRES    WAVE   SWELL
                       AIR SEA DIR/SP/G            HT/PER HT/PER
                 (UTC) (F)     (DEG/KT/KT) (MB)    (FT/S) (FT/S)
BRANDYWINE LGT   0800   51 52  350/ 10/ 10 1006.2
CAPE MAY NJ      0800   50 55  320/  3/  6 1005.8S
LEWES DE         0800   49 51  310/  8/ 10 1006.1F
15NM E FENWICK I 0850   48 47              1005.7S   2/ 7
OCEAN-CITY-INLET 0800   44 51   10/  8/ 11 1005.8
WACHAPREAGUE VA  0800   44 56  270/  3/  5 1006.1S
THOMAS POINT MD  0900   51 53  340/  7/  8 1007.5R
GOOSES REEF MD   0900   52 53   40/ 10/ 12   N/A     1/ 2
COVE POINT MD    0800   52      40/ 18/ 20 1006.9R
SOLOMONS ISLAND  0800      55                N/A
BISHOPS HEAD MD  0800   54 56  310/  7/  9 1005.6R
PINEY POINT MD   0800           40/  6/  8   N/A
CAMBRIDGE MD     0800   49 58   20/  5/  6 1006.3R
LEWISETTA VA     0800   47 57              1005.7R
RAPPAHANNOCK LGT 0800          230/ 11/ 12 1006.7R
YORK RVR RNG VA  0800   52     230/  8/  9 1005.8S
YORKTOWN VA      0800   49 59  220/  8/ 10 1006.1S
JAMESTOWN VA     0900   47 62  250/  6/  8 1005.3F
DOMINION TERM VA 0800   53     260/  9/ 10 1006.5S
KIPTOPEKE VA     0800      60  270/ 10/ 12   N/A
CHES BAY BRIDGE  0800   52 56  240/ 10/ 11 1006.0
CAPE HENRY VA    0800   48     230/  6/  8 1005.2S
CHESAPEAKE LGHT  0800   51     240/  8/  8 1007.0F
WILLOUBY STN VA  0800   53     240/  9/ 11 1007.0R
S CRANEY ISL VA  0800          250/  5/  7 1006.6S
CAPE HENRY BUOY  0828      51                N/A     3/ 7
OFFSHORE WE BUOY 0811      49                N/A     4/ 7   3/ 7
64NM E OF VA BCH 0850   54 55  330/ 10/ 12 1005.6R   4/ 8   3/ 8
DUCK PIER NC     0800   51 54  310/  6/  6 1005.4S
44056 DUCK FRF   0811      53                N/A     3/ 6
OREGON INLET NC  0800   47 54  330/  4/  5 1006.1S
HATTERAS NC      0800   57 60  360/ 12/ 15 1005.5
DIAMOND SHLS NC  0850   59 75   10/ 19/ 23 1005.1R   6/ 9   3/ 9
CAPE LOOKOUT NC  0900   53     340/ 13/ 16 1005.8F
$$



USA.gov is the U.S. government's official web portal to all federal, state and local government web resources and services.